,Coso Junction,Coso Junction
,PM10_1HR,PM10_1HR
,UG/M3,UG/M3
Date,Value,Null Code
01-Sep-2020 00:00,69.4,
01-Sep-2020 01:00,60.3,
01-Sep-2020 02:00,58.9,
01-Sep-2020 03:00,56,
01-Sep-2020 04:00,49.4,
01-Sep-2020 05:00,46.5,
01-Sep-2020 06:00,47.3,
01-Sep-2020 07:00,51.5,
01-Sep-2020 08:00,58.6,
01-Sep-2020 09:00,43.3,
01-Sep-2020 10:00,26.9,
01-Sep-2020 11:00,22.7,
01-Sep-2020 12:00,33.1,
01-Sep-2020 13:00,39.6,
01-Sep-2020 14:00,39.1,
01-Sep-2020 15:00,40.4,
01-Sep-2020 16:00,40.9,
01-Sep-2020 17:00,49.9,
01-Sep-2020 18:00,45.3,
01-Sep-2020 19:00,38.4,
01-Sep-2020 20:00,42.3,
01-Sep-2020 21:00,56.8,
01-Sep-2020 22:00,64.7,
01-Sep-2020 23:00,49.8,
02-Sep-2020 00:00,51.7,
02-Sep-2020 01:00,80.9,
02-Sep-2020 02:00,43.1,
02-Sep-2020 03:00,39.2,
02-Sep-2020 04:00,29.6,
02-Sep-2020 05:00,27.6,
02-Sep-2020 06:00,21.7,
02-Sep-2020 07:00,21.8,
02-Sep-2020 08:00,19.7,
02-Sep-2020 09:00,16.1,
02-Sep-2020 10:00,15.8,
02-Sep-2020 11:00,15.5,
02-Sep-2020 12:00,20.4,
02-Sep-2020 13:00,22.6,
02-Sep-2020 14:00,25.3,
02-Sep-2020 15:00,24.9,
02-Sep-2020 16:00,26.8,
02-Sep-2020 17:00,26.9,
02-Sep-2020 18:00,62.8,
02-Sep-2020 19:00,106.6,
02-Sep-2020 20:00,92.2,
02-Sep-2020 21:00,120.6,
02-Sep-2020 22:00,115.7,
02-Sep-2020 23:00,146,
03-Sep-2020 00:00,154.5,
03-Sep-2020 01:00,141.1,
03-Sep-2020 02:00,117,
03-Sep-2020 03:00,105.4,
03-Sep-2020 04:00,70.7,
03-Sep-2020 05:00,70.7,
03-Sep-2020 06:00,62.9,
03-Sep-2020 07:00,35.3,
03-Sep-2020 08:00,28.6,
03-Sep-2020 09:00,28.6,
03-Sep-2020 10:00,20.6,
03-Sep-2020 11:00,14.9,
03-Sep-2020 12:00,26.9,
03-Sep-2020 13:00,31.1,
03-Sep-2020 14:00,25.6,
03-Sep-2020 15:00,23,
03-Sep-2020 16:00,17.6,
03-Sep-2020 17:00,19.6,
03-Sep-2020 18:00,39.3,
03-Sep-2020 19:00,10.2,
03-Sep-2020 20:00,17.3,
03-Sep-2020 21:00,19.9,
03-Sep-2020 22:00,26,
03-Sep-2020 23:00,29.4,
04-Sep-2020 00:00,30.9,
04-Sep-2020 01:00,58.6,
04-Sep-2020 02:00,30.6,
04-Sep-2020 03:00,41,
04-Sep-2020 04:00,29.5,
04-Sep-2020 05:00,23.8,
04-Sep-2020 06:00,19.2,
04-Sep-2020 07:00,18.9,
04-Sep-2020 08:00,19,
04-Sep-2020 09:00,16.7,
04-Sep-2020 10:00,19.7,
04-Sep-2020 11:00,14,
04-Sep-2020 12:00,30.6,
04-Sep-2020 13:00,15.7,
04-Sep-2020 14:00,17.5,
04-Sep-2020 15:00,17.3,
04-Sep-2020 16:00,7.4,
04-Sep-2020 17:00,22.2,
04-Sep-2020 18:00,11.8,
04-Sep-2020 19:00,16.3,
04-Sep-2020 20:00,17.9,
04-Sep-2020 21:00,21.8,
04-Sep-2020 22:00,21.5,
04-Sep-2020 23:00,20.4,
05-Sep-2020 00:00,18.4,
05-Sep-2020 01:00,22.9,
05-Sep-2020 02:00,34.3,
05-Sep-2020 03:00,21.8,
05-Sep-2020 04:00,29.2,
05-Sep-2020 05:00,28.6,
05-Sep-2020 06:00,18.1,
05-Sep-2020 07:00,21.3,
05-Sep-2020 08:00,17.3,
05-Sep-2020 09:00,22.6,
05-Sep-2020 10:00,21.7,
05-Sep-2020 11:00,18,
05-Sep-2020 12:00,23.1,
05-Sep-2020 13:00,19.2,
05-Sep-2020 14:00,23.2,
05-Sep-2020 15:00,19.6,
05-Sep-2020 16:00,20.8,
05-Sep-2020 17:00,27,
05-Sep-2020 18:00,62.2,
05-Sep-2020 19:00,84.2,
05-Sep-2020 20:00,96.4,
05-Sep-2020 21:00,85.9,
05-Sep-2020 22:00,83.8,
05-Sep-2020 23:00,88.8,
06-Sep-2020 00:00,95.9,
06-Sep-2020 01:00,95.9,
06-Sep-2020 02:00,99.6,
06-Sep-2020 03:00,95.9,
06-Sep-2020 04:00,99.2,
06-Sep-2020 05:00,111.4,
06-Sep-2020 06:00,122.2,
06-Sep-2020 07:00,147.7,
06-Sep-2020 08:00,146.7,
06-Sep-2020 09:00,163.2,
06-Sep-2020 10:00,196.1,
06-Sep-2020 11:00,271.2,
06-Sep-2020 12:00,260.7,
06-Sep-2020 13:00,170.1,
06-Sep-2020 14:00,110.6,
06-Sep-2020 15:00,92.5,
06-Sep-2020 16:00,99.3,
06-Sep-2020 17:00,118.6,
06-Sep-2020 18:00,68.7,
06-Sep-2020 19:00,97,
06-Sep-2020 20:00,88.5,
06-Sep-2020 21:00,84,
06-Sep-2020 22:00,79,
06-Sep-2020 23:00,76.3,
07-Sep-2020 00:00,75.6,
07-Sep-2020 01:00,73.3,
07-Sep-2020 02:00,76.6,
07-Sep-2020 03:00,72.9,
07-Sep-2020 04:00,69.4,
07-Sep-2020 05:00,69.5,
07-Sep-2020 06:00,65.2,
07-Sep-2020 07:00,66.1,
07-Sep-2020 08:00,67.7,
07-Sep-2020 09:00,57.7,
07-Sep-2020 10:00,65.7,
07-Sep-2020 11:00,66,
07-Sep-2020 12:00,42.3,
07-Sep-2020 13:00,30.4,
07-Sep-2020 14:00,34.9,
07-Sep-2020 15:00,46.7,
07-Sep-2020 16:00,81.4,
07-Sep-2020 17:00,330.6,
07-Sep-2020 18:00,362.6,
07-Sep-2020 19:00,386.4,
07-Sep-2020 20:00,602.7,
07-Sep-2020 21:00,625,
07-Sep-2020 22:00,627.9,
07-Sep-2020 23:00,574.1,
08-Sep-2020 00:00,550.8,
08-Sep-2020 01:00,490.8,
08-Sep-2020 02:00,536.6,
08-Sep-2020 03:00,457.3,
08-Sep-2020 04:00,396.6,
08-Sep-2020 05:00,952.5,
08-Sep-2020 06:00,1072.1,
08-Sep-2020 07:00,1503.6,
08-Sep-2020 08:00,1857.4,
08-Sep-2020 09:00,1574.7,
08-Sep-2020 10:00,1036.9,
08-Sep-2020 11:00,746.5,
08-Sep-2020 12:00,532.1,
08-Sep-2020 13:00,404.9,
08-Sep-2020 14:00,277.9,
08-Sep-2020 15:00,201.7,
08-Sep-2020 16:00,145.6,
08-Sep-2020 17:00,109.4,
08-Sep-2020 18:00,85.4,
08-Sep-2020 19:00,65.1,
08-Sep-2020 20:00,75.4,
08-Sep-2020 21:00,86.8,
08-Sep-2020 22:00,71.8,
08-Sep-2020 23:00,53.6,
09-Sep-2020 00:00,46.9,
09-Sep-2020 01:00,37.9,
09-Sep-2020 02:00,32.8,
09-Sep-2020 03:00,31.8,
09-Sep-2020 04:00,34.7,
09-Sep-2020 05:00,35.7,
09-Sep-2020 06:00,39.6,
09-Sep-2020 07:00,,AX
09-Sep-2020 08:00,,AX
09-Sep-2020 09:00,,AX
09-Sep-2020 10:00,25.2,
09-Sep-2020 11:00,23.9,
09-Sep-2020 12:00,25.7,
09-Sep-2020 13:00,30.4,
09-Sep-2020 14:00,35.5,
09-Sep-2020 15:00,26.7,
09-Sep-2020 16:00,26.2,
09-Sep-2020 17:00,18.8,
09-Sep-2020 18:00,18.5,
09-Sep-2020 19:00,22.1,
09-Sep-2020 20:00,20.2,
09-Sep-2020 21:00,18,
09-Sep-2020 22:00,15.8,
09-Sep-2020 23:00,16.9,
10-Sep-2020 00:00,14.8,
10-Sep-2020 01:00,21.8,
10-Sep-2020 02:00,16.9,
10-Sep-2020 03:00,32.3,
10-Sep-2020 04:00,14.9,
10-Sep-2020 05:00,14,
10-Sep-2020 06:00,21.7,
10-Sep-2020 07:00,25.9,
10-Sep-2020 08:00,18.8,
10-Sep-2020 09:00,14.8,
10-Sep-2020 10:00,13.1,
10-Sep-2020 11:00,14,
10-Sep-2020 12:00,18.6,
10-Sep-2020 13:00,20.4,
10-Sep-2020 14:00,22,
10-Sep-2020 15:00,22.7,
10-Sep-2020 16:00,16.7,
10-Sep-2020 17:00,18,
10-Sep-2020 18:00,16.4,
10-Sep-2020 19:00,16.4,
10-Sep-2020 20:00,18,
10-Sep-2020 21:00,20.7,
10-Sep-2020 22:00,21,
10-Sep-2020 23:00,25.2,
11-Sep-2020 00:00,26.3,
11-Sep-2020 01:00,25,
11-Sep-2020 02:00,31.3,
11-Sep-2020 03:00,27,
11-Sep-2020 04:00,24.3,
11-Sep-2020 05:00,21.5,
11-Sep-2020 06:00,20.7,
11-Sep-2020 07:00,23.8,
11-Sep-2020 08:00,24.4,
11-Sep-2020 09:00,30.1,
11-Sep-2020 10:00,23.7,
11-Sep-2020 11:00,20.9,
11-Sep-2020 12:00,16.5,
11-Sep-2020 13:00,15.1,
11-Sep-2020 14:00,22.3,
11-Sep-2020 15:00,17,
11-Sep-2020 16:00,19.1,
11-Sep-2020 17:00,16.1,
11-Sep-2020 18:00,19.8,
11-Sep-2020 19:00,18,
11-Sep-2020 20:00,15.2,
11-Sep-2020 21:00,15.8,
11-Sep-2020 22:00,16.3,
11-Sep-2020 23:00,20.7,
12-Sep-2020 00:00,15.5,
12-Sep-2020 01:00,16.9,
12-Sep-2020 02:00,17.5,
12-Sep-2020 03:00,17,
12-Sep-2020 04:00,21.2,
12-Sep-2020 05:00,19.4,
12-Sep-2020 06:00,17.2,
12-Sep-2020 07:00,23.3,
12-Sep-2020 08:00,27,
12-Sep-2020 09:00,24.5,
12-Sep-2020 10:00,21.6,
12-Sep-2020 11:00,15.1,
12-Sep-2020 12:00,13,
12-Sep-2020 13:00,13.5,
12-Sep-2020 14:00,10.9,
12-Sep-2020 15:00,10.9,
12-Sep-2020 16:00,16.2,
12-Sep-2020 17:00,20,
12-Sep-2020 18:00,9.9,
12-Sep-2020 19:00,12.4,
12-Sep-2020 20:00,14,
12-Sep-2020 21:00,13.6,
12-Sep-2020 22:00,13.6,
12-Sep-2020 23:00,16.5,
13-Sep-2020 00:00,16.2,
13-Sep-2020 01:00,15.2,
13-Sep-2020 02:00,15.3,
13-Sep-2020 03:00,29.1,
13-Sep-2020 04:00,23.1,
13-Sep-2020 05:00,14.2,
13-Sep-2020 06:00,17.7,
13-Sep-2020 07:00,15.1,
13-Sep-2020 08:00,15.7,
13-Sep-2020 09:00,14,
13-Sep-2020 10:00,12.5,
13-Sep-2020 11:00,14.5,
13-Sep-2020 12:00,16.4,
13-Sep-2020 13:00,13.5,
13-Sep-2020 14:00,15.4,
13-Sep-2020 15:00,19.5,
13-Sep-2020 16:00,16.9,
13-Sep-2020 17:00,19.2,
13-Sep-2020 18:00,14.1,
13-Sep-2020 19:00,16.3,
13-Sep-2020 20:00,17.2,
13-Sep-2020 21:00,18,
13-Sep-2020 22:00,18.6,
13-Sep-2020 23:00,18.9,
14-Sep-2020 00:00,20.7,
14-Sep-2020 01:00,19.5,
14-Sep-2020 02:00,21.4,
14-Sep-2020 03:00,21.7,
14-Sep-2020 04:00,24.7,
14-Sep-2020 05:00,81.6,
14-Sep-2020 06:00,34.9,
14-Sep-2020 07:00,36.6,
14-Sep-2020 08:00,31,
14-Sep-2020 09:00,31.3,
14-Sep-2020 10:00,43.2,
14-Sep-2020 11:00,29,
14-Sep-2020 12:00,31.5,
14-Sep-2020 13:00,29.7,
14-Sep-2020 14:00,27.1,
14-Sep-2020 15:00,27.3,
14-Sep-2020 16:00,31.2,
14-Sep-2020 17:00,29.8,
14-Sep-2020 18:00,31.5,
14-Sep-2020 19:00,43.3,
14-Sep-2020 20:00,46.1,
14-Sep-2020 21:00,37.7,
14-Sep-2020 22:00,40.8,
14-Sep-2020 23:00,38.5,
15-Sep-2020 00:00,38.6,
15-Sep-2020 01:00,38.9,
15-Sep-2020 02:00,53.2,
15-Sep-2020 03:00,39.1,
15-Sep-2020 04:00,40.9,
15-Sep-2020 05:00,51.1,
15-Sep-2020 06:00,46.5,
15-Sep-2020 07:00,45,
15-Sep-2020 08:00,57,
15-Sep-2020 09:00,54.5,
15-Sep-2020 10:00,62.7,
15-Sep-2020 11:00,65.1,
15-Sep-2020 12:00,47.9,
15-Sep-2020 13:00,26.3,
15-Sep-2020 14:00,50.3,
15-Sep-2020 15:00,49.5,
15-Sep-2020 16:00,53.6,
15-Sep-2020 17:00,59.7,
15-Sep-2020 18:00,59.6,
15-Sep-2020 19:00,61.1,
15-Sep-2020 20:00,64.6,
15-Sep-2020 21:00,68.1,
15-Sep-2020 22:00,72.1,
15-Sep-2020 23:00,73.7,
16-Sep-2020 00:00,78,
16-Sep-2020 01:00,73.3,
16-Sep-2020 02:00,76.7,
16-Sep-2020 03:00,72.4,
16-Sep-2020 04:00,80.2,
16-Sep-2020 05:00,75.5,
16-Sep-2020 06:00,67.2,
16-Sep-2020 07:00,70.7,
16-Sep-2020 08:00,80.6,
16-Sep-2020 09:00,81.4,
16-Sep-2020 10:00,73.4,
16-Sep-2020 11:00,62.2,
16-Sep-2020 12:00,48,
16-Sep-2020 13:00,42.6,
16-Sep-2020 14:00,47.1,
16-Sep-2020 15:00,51.4,
16-Sep-2020 16:00,50.4,
16-Sep-2020 17:00,42.4,
16-Sep-2020 18:00,51.9,
16-Sep-2020 19:00,45.1,
16-Sep-2020 20:00,50.2,
16-Sep-2020 21:00,52.6,
16-Sep-2020 22:00,54.2,
16-Sep-2020 23:00,59.6,
17-Sep-2020 00:00,59,
17-Sep-2020 01:00,65.6,
17-Sep-2020 02:00,61.7,
17-Sep-2020 03:00,76.8,
17-Sep-2020 04:00,82.3,
17-Sep-2020 05:00,116.5,
17-Sep-2020 06:00,70.3,
17-Sep-2020 07:00,80.3,
17-Sep-2020 08:00,100.8,
17-Sep-2020 09:00,100.2,
17-Sep-2020 10:00,75.4,
17-Sep-2020 11:00,78.7,
17-Sep-2020 12:00,75.8,
17-Sep-2020 13:00,75.8,
17-Sep-2020 14:00,54.8,
17-Sep-2020 15:00,36.8,
17-Sep-2020 16:00,40.5,
17-Sep-2020 17:00,48.1,
17-Sep-2020 18:00,49.8,
17-Sep-2020 19:00,69.2,
17-Sep-2020 20:00,68.7,
17-Sep-2020 21:00,83.3,
17-Sep-2020 22:00,93.9,
17-Sep-2020 23:00,96,
18-Sep-2020 00:00,131.3,
18-Sep-2020 01:00,156.8,
18-Sep-2020 02:00,143.9,
18-Sep-2020 03:00,139.3,
18-Sep-2020 04:00,205.8,
18-Sep-2020 05:00,167,
18-Sep-2020 06:00,145.6,
18-Sep-2020 07:00,142.1,
18-Sep-2020 08:00,101.1,
18-Sep-2020 09:00,68.5,
18-Sep-2020 10:00,60.8,
18-Sep-2020 11:00,79,
18-Sep-2020 12:00,152.5,
18-Sep-2020 13:00,98.5,
18-Sep-2020 14:00,38,
18-Sep-2020 15:00,33.3,
18-Sep-2020 16:00,29,
18-Sep-2020 17:00,11.2,
18-Sep-2020 18:00,11.6,
18-Sep-2020 19:00,6.9,
18-Sep-2020 20:00,22.7,
18-Sep-2020 21:00,24.5,
18-Sep-2020 22:00,51,
18-Sep-2020 23:00,71.6,
19-Sep-2020 00:00,39.1,
19-Sep-2020 01:00,58.3,
19-Sep-2020 02:00,9.4,
19-Sep-2020 03:00,41.5,
19-Sep-2020 04:00,45.2,
19-Sep-2020 05:00,52.1,
19-Sep-2020 06:00,49.5,
19-Sep-2020 07:00,56.1,
19-Sep-2020 08:00,67.4,
19-Sep-2020 09:00,58.7,
19-Sep-2020 10:00,48.4,
19-Sep-2020 11:00,59.7,
19-Sep-2020 12:00,45.9,
19-Sep-2020 13:00,32.4,
19-Sep-2020 14:00,30,
19-Sep-2020 15:00,25.1,
19-Sep-2020 16:00,28.2,
19-Sep-2020 17:00,19.8,
19-Sep-2020 18:00,21.1,
19-Sep-2020 19:00,21.4,
19-Sep-2020 20:00,22.2,
19-Sep-2020 21:00,24.4,
19-Sep-2020 22:00,20,
19-Sep-2020 23:00,18.4,
20-Sep-2020 00:00,20,
20-Sep-2020 01:00,25.3,
20-Sep-2020 02:00,19.7,
20-Sep-2020 03:00,25.6,
20-Sep-2020 04:00,26,
20-Sep-2020 05:00,28.4,
20-Sep-2020 06:00,31.3,
20-Sep-2020 07:00,34.3,
20-Sep-2020 08:00,32.2,
20-Sep-2020 09:00,29.7,
20-Sep-2020 10:00,22.5,
20-Sep-2020 11:00,22.5,
20-Sep-2020 12:00,56.5,
20-Sep-2020 13:00,60.5,
20-Sep-2020 14:00,51,
20-Sep-2020 15:00,51,
20-Sep-2020 16:00,14.9,
20-Sep-2020 17:00,37.7,
20-Sep-2020 18:00,37.1,
20-Sep-2020 19:00,59.8,
20-Sep-2020 20:00,37.6,
20-Sep-2020 21:00,41.8,
20-Sep-2020 22:00,40,
20-Sep-2020 23:00,42.3,
21-Sep-2020 00:00,41.3,
21-Sep-2020 01:00,44.2,
21-Sep-2020 02:00,44.7,
21-Sep-2020 03:00,49.1,
21-Sep-2020 04:00,52.5,
21-Sep-2020 05:00,69.9,
21-Sep-2020 06:00,58.8,
21-Sep-2020 07:00,57.8,
21-Sep-2020 08:00,41.8,
21-Sep-2020 09:00,25,
21-Sep-2020 10:00,22.8,
21-Sep-2020 11:00,42.7,
21-Sep-2020 12:00,47.9,
21-Sep-2020 13:00,25.7,
21-Sep-2020 14:00,21.9,
21-Sep-2020 15:00,14.4,
21-Sep-2020 16:00,19.6,
21-Sep-2020 17:00,18.9,
21-Sep-2020 18:00,25.2,
21-Sep-2020 19:00,34.4,
21-Sep-2020 20:00,22.7,
21-Sep-2020 21:00,23.1,
21-Sep-2020 22:00,24.4,
21-Sep-2020 23:00,26.8,
22-Sep-2020 00:00,33.6,
22-Sep-2020 01:00,36.7,
22-Sep-2020 02:00,34.1,
22-Sep-2020 03:00,34.8,
22-Sep-2020 04:00,38.4,
22-Sep-2020 05:00,52.1,
22-Sep-2020 06:00,46.7,
22-Sep-2020 07:00,41.8,
22-Sep-2020 08:00,42.4,
22-Sep-2020 09:00,46.9,
22-Sep-2020 10:00,48.9,
22-Sep-2020 11:00,,BA
22-Sep-2020 12:00,,BA
22-Sep-2020 13:00,,BA
22-Sep-2020 14:00,,BA
22-Sep-2020 15:00,51.3,
22-Sep-2020 16:00,63.7,
22-Sep-2020 17:00,189.9,
22-Sep-2020 18:00,197.8,
22-Sep-2020 19:00,197.9,
22-Sep-2020 20:00,279.6,
22-Sep-2020 21:00,257,
22-Sep-2020 22:00,252.7,
22-Sep-2020 23:00,244,
23-Sep-2020 00:00,149.8,
23-Sep-2020 01:00,146.5,
23-Sep-2020 02:00,192.5,
23-Sep-2020 03:00,211.2,
23-Sep-2020 04:00,181.4,
23-Sep-2020 05:00,145.2,
23-Sep-2020 06:00,157.1,
23-Sep-2020 07:00,155.9,
23-Sep-2020 08:00,160.1,
23-Sep-2020 09:00,156,
23-Sep-2020 10:00,158.1,
23-Sep-2020 11:00,155.4,
23-Sep-2020 12:00,90.8,
23-Sep-2020 13:00,43.4,
23-Sep-2020 14:00,61.1,
23-Sep-2020 15:00,80.3,
23-Sep-2020 16:00,60.6,
23-Sep-2020 17:00,52.7,
23-Sep-2020 18:00,94.2,
23-Sep-2020 19:00,110.1,
23-Sep-2020 20:00,109,
23-Sep-2020 21:00,112.1,
23-Sep-2020 22:00,114.7,
23-Sep-2020 23:00,112.6,
24-Sep-2020 00:00,106.6,
24-Sep-2020 01:00,106.4,
24-Sep-2020 02:00,128.1,
24-Sep-2020 03:00,134.8,
24-Sep-2020 04:00,166.6,
24-Sep-2020 05:00,197.4,
24-Sep-2020 06:00,152.6,
24-Sep-2020 07:00,89.3,
24-Sep-2020 08:00,76.6,
24-Sep-2020 09:00,79,
24-Sep-2020 10:00,93,
24-Sep-2020 11:00,111,
24-Sep-2020 12:00,136.2,
24-Sep-2020 13:00,193.8,
24-Sep-2020 14:00,195.1,
24-Sep-2020 15:00,161.8,
24-Sep-2020 16:00,151.9,
24-Sep-2020 17:00,149.3,
24-Sep-2020 18:00,162,
24-Sep-2020 19:00,134.2,
24-Sep-2020 20:00,166.3,
24-Sep-2020 21:00,146.9,
24-Sep-2020 22:00,136.6,
24-Sep-2020 23:00,175.8,
25-Sep-2020 00:00,131.9,
25-Sep-2020 01:00,135.9,
25-Sep-2020 02:00,138.5,
25-Sep-2020 03:00,174.7,
25-Sep-2020 04:00,127.6,
25-Sep-2020 05:00,126,
25-Sep-2020 06:00,123.4,
25-Sep-2020 07:00,125.8,
25-Sep-2020 08:00,129,
25-Sep-2020 09:00,133.5,
25-Sep-2020 10:00,131.2,
25-Sep-2020 11:00,126.8,
25-Sep-2020 12:00,102.1,
25-Sep-2020 13:00,97.3,
25-Sep-2020 14:00,100.4,
25-Sep-2020 15:00,88,
25-Sep-2020 16:00,88.6,
25-Sep-2020 17:00,97.9,
25-Sep-2020 18:00,90.2,
25-Sep-2020 19:00,92.2,
25-Sep-2020 20:00,91.1,
25-Sep-2020 21:00,88.6,
25-Sep-2020 22:00,106.8,
25-Sep-2020 23:00,106.8,
26-Sep-2020 00:00,84.9,
26-Sep-2020 01:00,84.6,
26-Sep-2020 02:00,82.9,
26-Sep-2020 03:00,87.1,
26-Sep-2020 04:00,80.9,
26-Sep-2020 05:00,76.7,
26-Sep-2020 06:00,77.1,
26-Sep-2020 07:00,75.3,
26-Sep-2020 08:00,109.3,
26-Sep-2020 09:00,101.6,
26-Sep-2020 10:00,83.7,
26-Sep-2020 11:00,85.7,
26-Sep-2020 12:00,82.6,
26-Sep-2020 13:00,67.9,
26-Sep-2020 14:00,65,
26-Sep-2020 15:00,65.6,
26-Sep-2020 16:00,54.9,
26-Sep-2020 17:00,64.9,
26-Sep-2020 18:00,52.9,
26-Sep-2020 19:00,50.7,
26-Sep-2020 20:00,54.7,
26-Sep-2020 21:00,51.7,
26-Sep-2020 22:00,53.4,
26-Sep-2020 23:00,55.5,
27-Sep-2020 00:00,56.4,
27-Sep-2020 01:00,43,
27-Sep-2020 02:00,29,
27-Sep-2020 03:00,25.6,
27-Sep-2020 04:00,23.5,
27-Sep-2020 05:00,18.1,
27-Sep-2020 06:00,18.3,
27-Sep-2020 07:00,33.2,
27-Sep-2020 08:00,67.3,
27-Sep-2020 09:00,65.7,
27-Sep-2020 10:00,62.9,
27-Sep-2020 11:00,34.2,
27-Sep-2020 12:00,21.1,
27-Sep-2020 13:00,22.5,
27-Sep-2020 14:00,23,
27-Sep-2020 15:00,22.2,
27-Sep-2020 16:00,18.8,
27-Sep-2020 17:00,15.4,
27-Sep-2020 18:00,21.2,
27-Sep-2020 19:00,19.5,
27-Sep-2020 20:00,17.5,
27-Sep-2020 21:00,14.6,
27-Sep-2020 22:00,11.8,
27-Sep-2020 23:00,11.6,
28-Sep-2020 00:00,12.4,
28-Sep-2020 01:00,10.8,
28-Sep-2020 02:00,11.6,
28-Sep-2020 03:00,14.9,
28-Sep-2020 04:00,12.1,
28-Sep-2020 05:00,12.7,
28-Sep-2020 06:00,13.3,
28-Sep-2020 07:00,16,
28-Sep-2020 08:00,19.3,
28-Sep-2020 09:00,18.4,
28-Sep-2020 10:00,14.2,
28-Sep-2020 11:00,9.9,
28-Sep-2020 12:00,8.3,
28-Sep-2020 13:00,5.4,
28-Sep-2020 14:00,5.5,
28-Sep-2020 15:00,7.2,
28-Sep-2020 16:00,7.9,
28-Sep-2020 17:00,12,
28-Sep-2020 18:00,12.7,
28-Sep-2020 19:00,8.8,
28-Sep-2020 20:00,10.3,
28-Sep-2020 21:00,8.9,
28-Sep-2020 22:00,10.1,
28-Sep-2020 23:00,8.3,
29-Sep-2020 00:00,26.2,
29-Sep-2020 01:00,9.7,
29-Sep-2020 02:00,11.7,
29-Sep-2020 03:00,6.1,
29-Sep-2020 04:00,14,
29-Sep-2020 05:00,9.4,
29-Sep-2020 06:00,8.6,
29-Sep-2020 07:00,13.9,
29-Sep-2020 08:00,,BA
29-Sep-2020 09:00,,BA
29-Sep-2020 10:00,,BA
29-Sep-2020 11:00,,BA
29-Sep-2020 12:00,10.3,
29-Sep-2020 13:00,18.4,
29-Sep-2020 14:00,12.9,
29-Sep-2020 15:00,10.3,
29-Sep-2020 16:00,13,
29-Sep-2020 17:00,20.1,
29-Sep-2020 18:00,9.9,
29-Sep-2020 19:00,12.2,
29-Sep-2020 20:00,11.6,
29-Sep-2020 21:00,12.2,
29-Sep-2020 22:00,47.4,
29-Sep-2020 23:00,29.1,
30-Sep-2020 00:00,23.9,
30-Sep-2020 01:00,16.6,
30-Sep-2020 02:00,13.2,
30-Sep-2020 03:00,13.3,
30-Sep-2020 04:00,13.3,
30-Sep-2020 05:00,17.7,
30-Sep-2020 06:00,17.4,
30-Sep-2020 07:00,22.3,
30-Sep-2020 08:00,30.5,
30-Sep-2020 09:00,34.3,
30-Sep-2020 10:00,37.3,
30-Sep-2020 11:00,36.7,
30-Sep-2020 12:00,41.5,
30-Sep-2020 13:00,43.7,
30-Sep-2020 14:00,43.7,
30-Sep-2020 15:00,49.2,
30-Sep-2020 16:00,46.6,
30-Sep-2020 17:00,42.6,
30-Sep-2020 18:00,42.2,
30-Sep-2020 19:00,43,
30-Sep-2020 20:00,39.9,
30-Sep-2020 21:00,50.4,
30-Sep-2020 22:00,41.7,
30-Sep-2020 23:00,44.3,
